Carnival Miracle — H3VS — position and weather

sailwx.info

Track history (hours):
 
Tides and Currents Weather Stations Pressure Air Temp Water Temp Dewpoint Dewpoint Depression Visibility Wind Speed Wind Dir Waves Ship Positions

Carnival Miracle

Operator: Carnival Cruise Lines

Last reported at 2018-Feb-17 21:00 UTC. Time now 2018-Feb-17 21:14 UTC.
Position N 27°57' W 082°27'.

Type: Ship. MMSI: 35437000.

Date/timePositionNaut miles runAvg speedWind from/ knotsBaromVisibWave heightAir tempDewpointWater temp
2018-Feb-17 21:00N 27°57' W 082°27'0 0.0
2018-Feb-17 20:30N 27°57' W 082°27'0 0.0
2018-Feb-17 19:56N 27°57' W 082°27'0 0.0
2018-Feb-17 19:29N 27°57' W 082°27'0 0.0
2018-Feb-17 18:59N 27°57' W 082°27'0 0.0
2018-Feb-17 18:29N 27°57' W 082°27'0 0.0
2018-Feb-17 17:59N 27°57' W 082°27'0 0.0
2018-Feb-17 17:28N 27°57' W 082°27'0 0.0
2018-Feb-17 16:58N 27°57' W 082°27'0 0.0
2018-Feb-17 16:28N 27°57' W 082°27'0 0.0
2018-Feb-17 15:58N 27°57' W 082°27'0 0.0
2018-Feb-17 15:31N 27°57' W 082°27'0 0.0
2018-Feb-17 15:00N 27°57' W 082°27'0 0.0
2018-Feb-17 14:30N 27°57' W 082°27'0 0.0
2018-Feb-17 14:00N 27°57' W 082°27'0 0.0
2018-Feb-17 13:30N 27°57' W 082°27'0 0.0
2018-Feb-17 12:59N 27°57' W 082°27'0 0.0
2018-Feb-17 12:29N 27°57' W 082°27'0 0.0
2018-Feb-17 11:59N 27°57' W 082°27'0 0.0
2018-Feb-17 11:29N 27°57' W 082°27'0 0.0
2018-Feb-17 10:59N 27°57' W 082°27'0 0.0
2018-Feb-17 10:28N 27°57' W 082°27'0 0.0
2018-Feb-17 09:58N 27°57' W 082°27'0 0.0
2018-Feb-17 09:30N 27°57' W 082°27'0 0.6
2018-Feb-17 09:00N 27°57' W 082°27'2 3.4
2018-Feb-17 08:30N 27°55' W 082°27'3 6.4
2018-Feb-17 08:00N 27°52' W 082°27'510.2
2018-Feb-17 07:30N 27°48' W 082°30'611.2
2018-Feb-17 07:00N 27°43' W 082°33'815.8
2018-Feb-17 06:31N 27°37' W 082°39'915.1
2018-Feb-17 05:53N 27°36' W 082°50'613.9
2018-Feb-17 05:26N 27°36' W 082°57'20612.5
2018-Feb-16 13:00N 24°30' W 084°36'26918.9 110 / 201023.0 25.022.227.0
2018-Feb-15 22:49N 20°35' W 086°58'517.7
2018-Feb-15 22:30N 20°30' W 086°59'2 3.3
2018-Feb-15 22:00N 20°29' W 086°59'0 0.0
2018-Feb-15 21:30N 20°29' W 086°59'0 0.0
2018-Feb-15 20:57N 20°29' W 086°59'0 0.0
2018-Feb-15 20:29N 20°29' W 086°59'0 0.0
2018-Feb-15 19:59N 20°29' W 086°59'0 0.0
2018-Feb-15 19:29N 20°29' W 086°59'0 0.0
2018-Feb-15 18:59N 20°29' W 086°59'0 0.0
2018-Feb-15 18:26N 20°29' W 086°59'0 0.0
2018-Feb-15 17:58N 20°29' W 086°59'0 0.0
2018-Feb-15 17:25N 20°29' W 086°59'0 0.0
2018-Feb-15 16:58N 20°29' W 086°59'0 0.0
2018-Feb-15 16:28N 20°29' W 086°59'0 0.0
2018-Feb-15 16:01N 20°29' W 086°59'0 0.0
2018-Feb-15 15:27N 20°29' W 086°59'0 0.0
2018-Feb-15 15:00N 20°29' W 086°59'0 0.0
2018-Feb-15 14:30N 20°29' W 086°59'0 0.0
2018-Feb-15 14:00N 20°29' W 086°59'0 0.0
2018-Feb-15 13:29N 20°29' W 086°59'0 0.0
2018-Feb-15 12:59N 20°29' W 086°59'0 0.0
2018-Feb-15 12:30N 20°29' W 086°59'2 4.6
2018-Feb-15 12:00N 20°30' W 087°00'3 6.7
2018-Feb-15 11:30N 20°30' W 087°04'259 5.4
2018-Feb-13 12:00N 16°18' W 086°00'427 9.3 080 / 161021.0 27.025.727.0
2018-Feb-11 14:00N 23°18' W 084°36'4522.6 130 / 181020.027.0 27.024.320.0
2018-Feb-11 12:00N 24°00' W 084°18'22520.1 130 / 151020.010.8 25.023.625.0
2018-Feb-11 00:48N 27°34' W 083°01'1815.6
2018-Feb-10 23:38N 27°37' W 082°41'614.8
2018-Feb-10 23:15N 27°40' W 082°36'414.6
2018-Feb-10 23:00N 27°42' W 082°33'612.8
2018-Feb-10 22:30N 27°48' W 082°29'612.2
2018-Feb-10 22:00N 27°54' W 082°26'3 5.4
2018-Feb-10 21:30N 27°56' W 082°27'1 1.0
2018-Feb-10 20:59N 27°57' W 082°27'0 0.0
2018-Feb-10 20:29N 27°57' W 082°27'0 0.0
2018-Feb-10 19:59N 27°57' W 082°27'0 0.0
2018-Feb-10 19:29N 27°57' W 082°27'0 0.0
2018-Feb-10 18:59N 27°57' W 082°27'0 0.0
2018-Feb-10 18:28N 27°57' W 082°27'0 0.0
2018-Feb-10 17:58N 27°57' W 082°27'0 0.0
2018-Feb-10 17:28N 27°57' W 082°27'0 0.0
2018-Feb-10 16:58N 27°57' W 082°27'0 0.0
2018-Feb-10 16:31N 27°57' W 082°27'0 0.0
2018-Feb-10 16:00N 27°57' W 082°27'0 0.0
2018-Feb-10 15:30N 27°57' W 082°27'0 0.0
2018-Feb-10 15:00N 27°57' W 082°27'0 0.0
2018-Feb-10 14:30N 27°57' W 082°27'0 0.0
2018-Feb-10 13:59N 27°57' W 082°27'0 0.0
2018-Feb-10 13:29N 27°57' W 082°27'0 0.0
2018-Feb-10 12:59N 27°57' W 082°27'0 0.0
2018-Feb-10 12:29N 27°57' W 082°27'0 0.0
2018-Feb-10 11:59N 27°57' W 082°27'0 0.0
2018-Feb-10 11:28N 27°57' W 082°27'0 0.0
2018-Feb-10 10:58N 27°57' W 082°27'0 0.0
2018-Feb-10 10:28N 27°57' W 082°27'0 0.0
2018-Feb-10 09:58N 27°57' W 082°27'0 0.0
2018-Feb-10 09:30N 27°57' W 082°27'0 0.4
2018-Feb-10 09:00N 27°57' W 082°27'0 0.3
2018-Feb-10 08:29N 27°56' W 082°27'2 3.5
2018-Feb-10 08:00N 27°55' W 082°27'4 8.1
2018-Feb-10 07:31N 27°51' W 082°27'612.1
2018-Feb-10 07:00N 27°46' W 082°31'713.7
2018-Feb-10 06:30N 27°40' W 082°36'714.1
2018-Feb-10 05:59N 27°36' W 082°42'20713.0
2018-Feb-09 14:00N 24°36' W 084°36'3216.0 090 / 351022.0 1.1 25.022.226.0
2018-Feb-09 12:00N 24°06' W 084°48'24910.6 090 / 311022.010.8 25.023.626.0
2018-Feb-08 12:30N 20°29' W 086°59'0 0.5
2018-Feb-08 12:00N 20°29' W 086°59'3 5.3
2018-Feb-08 11:30N 20°31' W 087°01'  
Track history (hours):
 
Tides and Currents Weather Stations Pressure Air Temp Water Temp Dewpoint Dewpoint Depression Visibility Wind Speed Wind Dir Waves Ship Positions

Carnival Miracle

Operator: Carnival Cruise Lines

Last reported at 2018-Feb-17 21:00 UTC. Time now 2018-Feb-17 21:14 UTC.
Position N 27°57' W 082°27'.

Type: Ship. MMSI: 35437000.

Date/timePositionNaut miles runAvg speedWind from/ knotsBaromVisibWave heightAir tempDewpointWater temp
2018-Feb-17 21:00N 27°57' W 082°27'0 0.0
2018-Feb-17 20:30N 27°57' W 082°27'0 0.0
2018-Feb-17 19:56N 27°57' W 082°27'0 0.0
2018-Feb-17 19:29N 27°57' W 082°27'0 0.0
2018-Feb-17 18:59N 27°57' W 082°27'0 0.0
2018-Feb-17 18:29N 27°57' W 082°27'0 0.0
2018-Feb-17 17:59N 27°57' W 082°27'0 0.0
2018-Feb-17 17:28N 27°57' W 082°27'0 0.0
2018-Feb-17 16:58N 27°57' W 082°27'0 0.0
2018-Feb-17 16:28N 27°57' W 082°27'0 0.0
2018-Feb-17 15:58N 27°57' W 082°27'0 0.0
2018-Feb-17 15:31N 27°57' W 082°27'0 0.0
2018-Feb-17 15:00N 27°57' W 082°27'0 0.0
2018-Feb-17 14:30N 27°57' W 082°27'0 0.0
2018-Feb-17 14:00N 27°57' W 082°27'0 0.0
2018-Feb-17 13:30N 27°57' W 082°27'0 0.0
2018-Feb-17 12:59N 27°57' W 082°27'0 0.0
2018-Feb-17 12:29N 27°57' W 082°27'0 0.0
2018-Feb-17 11:59N 27°57' W 082°27'0 0.0
2018-Feb-17 11:29N 27°57' W 082°27'0 0.0
2018-Feb-17 10:59N 27°57' W 082°27'0 0.0
2018-Feb-17 10:28N 27°57' W 082°27'0 0.0
2018-Feb-17 09:58N 27°57' W 082°27'0 0.0
2018-Feb-17 09:30N 27°57' W 082°27'0 0.6
2018-Feb-17 09:00N 27°57' W 082°27'2 3.4
2018-Feb-17 08:30N 27°55' W 082°27'3 6.4
2018-Feb-17 08:00N 27°52' W 082°27'510.2
2018-Feb-17 07:30N 27°48' W 082°30'611.2
2018-Feb-17 07:00N 27°43' W 082°33'815.8
2018-Feb-17 06:31N 27°37' W 082°39'915.1
2018-Feb-17 05:53N 27°36' W 082°50'613.9
2018-Feb-17 05:26N 27°36' W 082°57'20612.5
2018-Feb-16 13:00N 24°30' W 084°36'26918.9 110 / 201023.0 25.022.227.0
2018-Feb-15 22:49N 20°35' W 086°58'517.7
2018-Feb-15 22:30N 20°30' W 086°59'2 3.3
2018-Feb-15 22:00N 20°29' W 086°59'0 0.0
2018-Feb-15 21:30N 20°29' W 086°59'0 0.0
2018-Feb-15 20:57N 20°29' W 086°59'0 0.0
2018-Feb-15 20:29N 20°29' W 086°59'0 0.0
2018-Feb-15 19:59N 20°29' W 086°59'0 0.0
2018-Feb-15 19:29N 20°29' W 086°59'0 0.0
2018-Feb-15 18:59N 20°29' W 086°59'0 0.0
2018-Feb-15 18:26N 20°29' W 086°59'0 0.0
2018-Feb-15 17:58N 20°29' W 086°59'0 0.0
2018-Feb-15 17:25N 20°29' W 086°59'0 0.0
2018-Feb-15 16:58N 20°29' W 086°59'0 0.0
2018-Feb-15 16:28N 20°29' W 086°59'0 0.0
2018-Feb-15 16:01N 20°29' W 086°59'0 0.0
2018-Feb-15 15:27N 20°29' W 086°59'0 0.0
2018-Feb-15 15:00N 20°29' W 086°59'0 0.0
2018-Feb-15 14:30N 20°29' W 086°59'0 0.0
2018-Feb-15 14:00N 20°29' W 086°59'0 0.0
2018-Feb-15 13:29N 20°29' W 086°59'0 0.0
2018-Feb-15 12:59N 20°29' W 086°59'0 0.0
2018-Feb-15 12:30N 20°29' W 086°59'2 4.6
2018-Feb-15 12:00N 20°30' W 087°00'3 6.7
2018-Feb-15 11:30N 20°30' W 087°04'259 5.4
2018-Feb-13 12:00N 16°18' W 086°00'427 9.3 080 / 161021.0 27.025.727.0
2018-Feb-11 14:00N 23°18' W 084°36'4522.6 130 / 181020.027.0 27.024.320.0
2018-Feb-11 12:00N 24°00' W 084°18'22520.1 130 / 151020.010.8 25.023.625.0
2018-Feb-11 00:48N 27°34' W 083°01'1815.6
2018-Feb-10 23:38N 27°37' W 082°41'614.8
2018-Feb-10 23:15N 27°40' W 082°36'414.6
2018-Feb-10 23:00N 27°42' W 082°33'612.8
2018-Feb-10 22:30N 27°48' W 082°29'612.2
2018-Feb-10 22:00N 27°54' W 082°26'3 5.4
2018-Feb-10 21:30N 27°56' W 082°27'1 1.0
2018-Feb-10 20:59N 27°57' W 082°27'0 0.0
2018-Feb-10 20:29N 27°57' W 082°27'0 0.0
2018-Feb-10 19:59N 27°57' W 082°27'0 0.0
2018-Feb-10 19:29N 27°57' W 082°27'0 0.0
2018-Feb-10 18:59N 27°57' W 082°27'0 0.0
2018-Feb-10 18:28N 27°57' W 082°27'0 0.0
2018-Feb-10 17:58N 27°57' W 082°27'0 0.0
2018-Feb-10 17:28N 27°57' W 082°27'0 0.0
2018-Feb-10 16:58N 27°57' W 082°27'0 0.0
2018-Feb-10 16:31N 27°57' W 082°27'0 0.0
2018-Feb-10 16:00N 27°57' W 082°27'0 0.0
2018-Feb-10 15:30N 27°57' W 082°27'0 0.0
2018-Feb-10 15:00N 27°57' W 082°27'0 0.0
2018-Feb-10 14:30N 27°57' W 082°27'0 0.0
2018-Feb-10 13:59N 27°57' W 082°27'0 0.0
2018-Feb-10 13:29N 27°57' W 082°27'0 0.0
2018-Feb-10 12:59N 27°57' W 082°27'0 0.0
2018-Feb-10 12:29N 27°57' W 082°27'0 0.0
2018-Feb-10 11:59N 27°57' W 082°27'0 0.0
2018-Feb-10 11:28N 27°57' W 082°27'0 0.0
2018-Feb-10 10:58N 27°57' W 082°27'0 0.0
2018-Feb-10 10:28N 27°57' W 082°27'0 0.0
2018-Feb-10 09:58N 27°57' W 082°27'0 0.0
2018-Feb-10 09:30N 27°57' W 082°27'0 0.4
2018-Feb-10 09:00N 27°57' W 082°27'0 0.3
2018-Feb-10 08:29N 27°56' W 082°27'2 3.5
2018-Feb-10 08:00N 27°55' W 082°27'4 8.1
2018-Feb-10 07:31N 27°51' W 082°27'612.1
2018-Feb-10 07:00N 27°46' W 082°31'713.7
2018-Feb-10 06:30N 27°40' W 082°36'714.1
2018-Feb-10 05:59N 27°36' W 082°42'20713.0
2018-Feb-09 14:00N 24°36' W 084°36'3216.0 090 / 351022.0 1.1 25.022.226.0
2018-Feb-09 12:00N 24°06' W 084°48'24910.6 090 / 311022.010.8 25.023.626.0
2018-Feb-08 12:30N 20°29' W 086°59'0 0.5
2018-Feb-08 12:00N 20°29' W 086°59'3 5.3
2018-Feb-08 11:30N 20°31' W 087°01'  

Dump ship's entire track history